EN

Hourly Weather Ladorudzek

Today, 25 July, Sunday

Time Temperature Precipitation Wind Pressure Humidity
00:00 +19°C° 0 mm 3 mps 751 mmHg 72%
01:00 +19°C° 0 mm 3 mps 751 mmHg 72%
02:00 +19°C° 0 mm 3 mps 751 mmHg 72%
03:00 +19°C° 0 mm 3 mps 751 mmHg 73%
04:00 +19°C° 0 mm 3 mps 750 mmHg 73%
05:00 +20°C° 0 mm 3 mps 750 mmHg 70%
06:00 +21°C° 0 mm 3 mps 750 mmHg 68%
07:00 +24°C° 0 mm 3 mps 751 mmHg 65%
08:00 +25°C° 0 mm 3 mps 751 mmHg 62%
09:00 +25°C° 0 mm 3 mps 751 mmHg 60%
10:00 +26°C° 0 mm 3 mps 751 mmHg 57%
11:00 +28°C° 0 mm 3 mps 751 mmHg 52%
12:00 +29°C° 0 mm 3 mps 750 mmHg 47%
13:00 +30°C° 0 mm 3 mps 750 mmHg 42%
14:00 +28°C° 0 mm 3 mps 751 mmHg 50%
15:00 +26°C° 0 mm 3 mps 751 mmHg 58%
16:00 +24°C° 0 mm 3 mps 751 mmHg 66%
17:00 +24°C° 0 mm 2 mps 751 mmHg 69%
18:00 +23°C° 0 mm 2 mps 751 mmHg 71%
19:00 +22°C° 0 mm 1 mps 751 mmHg 74%
20:00 +22°C° 0 mm 1 mps 751 mmHg 75%
21:00 +20°C° 0 mm 2 mps 751 mmHg 77%
22:00 +20°C° 0 mm 2 mps 751 mmHg 78%
23:00 +20°C° 0 mm 3 mps 751 mmHg 77%

Tomorrow, 26 July, Monday

Time Temperature Precipitation Wind Pressure Humidity
00:00 +20°C° 0 mm 3 mps 750 mmHg 76%
01:00 +21°C° 0 mm 4 mps 750 mmHg 74%
02:00 +21°C° 0 mm 4 mps 750 mmHg 75%
03:00 +21°C° 0 mm 4 mps 750 mmHg 75%
04:00 +20°C° 0 mm 4 mps 749 mmHg 75%
05:00 +21°C° 0 mm 4 mps 749 mmHg 72%
06:00 +22°C° 0 mm 5 mps 749 mmHg 68%
07:00 +23°C° 0 mm 5 mps 749 mmHg 65%
08:00 +25°C° 0 mm 4 mps 749 mmHg 62%
09:00 +27°C° 0 mm 4 mps 749 mmHg 58%
10:00 +28°C° 0 mm 3 mps 749 mmHg 54%
11:00 +29°C° 0 mm 3 mps 749 mmHg 52%
12:00 +30°C° 0 mm 3 mps 749 mmHg 50%
13:00 +30°C° 0 mm 3 mps 749 mmHg 47%
14:00 +30°C° 0 mm 2 mps 749 mmHg 49%
15:00 +30°C° 0 mm 2 mps 749 mmHg 50%
16:00 +30°C° 0 mm 2 mps 749 mmHg 51%
17:00 +28°C° 0.2 mm 2 mps 749 mmHg 59%
18:00 +26°C° 0.2 mm 2 mps 749 mmHg 67%
19:00 +25°C° 0.2 mm 2 mps 749 mmHg 75%
20:00 +24°C° 0 mm 2 mps 749 mmHg 78%
21:00 +23°C° 0 mm 2 mps 749 mmHg 81%
22:00 +21°C° 0 mm 2 mps 749 mmHg 84%
23:00 +21°C° 0 mm 2 mps 749 mmHg 83%

Day after tomorrow, 27 July, Tuesday

Time Temperature Precipitation Wind Pressure Humidity
00:00 +21°C° 0 mm 2 mps 749 mmHg 83%
01:00 +21°C° 0 mm 1 mps 749 mmHg 83%
02:00 +21°C° 0 mm 1 mps 749 mmHg 83%
03:00 +20°C° 0 mm 2 mps 749 mmHg 83%
04:00 +20°C° 0 mm 2 mps 749 mmHg 83%
05:00 +21°C° 0 mm 2 mps 749 mmHg 82%
06:00 +21°C° 0 mm 2 mps 750 mmHg 80%
07:00 +22°C° 0 mm 3 mps 750 mmHg 78%
08:00 +22°C° 0.2 mm 3 mps 750 mmHg 77%
09:00 +23°C° 0.2 mm 4 mps 751 mmHg 77%
10:00 +23°C° 0.2 mm 4 mps 751 mmHg 76%
11:00 +25°C° 0 mm 4 mps 751 mmHg 70%
12:00 +26°C° 0 mm 4 mps 751 mmHg 65%
13:00 +27°C° 0 mm 4 mps 751 mmHg 60%
14:00 +27°C° 0 mm 4 mps 751 mmHg 58%
15:00 +28°C° 0 mm 5 mps 751 mmHg 56%
16:00 +28°C° 0 mm 5 mps 751 mmHg 54%
17:00 +27°C° 0 mm 4 mps 751 mmHg 58%
18:00 +26°C° 0 mm 4 mps 751 mmHg 62%
19:00 +25°C° 0 mm 4 mps 751 mmHg 67%
20:00 +24°C° 0.3 mm 3 mps 751 mmHg 72%
21:00 +21°C° 0.3 mm 3 mps 751 mmHg 77%
22:00 +20°C° 0.3 mm 3 mps 751 mmHg 82%
23:00 +20°C° 0 mm 3 mps 751 mmHg 83%

28 July, Wednesday

Time Temperature Precipitation Wind Pressure Humidity
00:00 +20°C° 0 mm 3 mps 751 mmHg 84%
01:00 +19°C° 0 mm 3 mps 751 mmHg 85%
02:00 +19°C° 0.1 mm 3 mps 751 mmHg 87%
03:00 +19°C° 0.1 mm 3 mps 751 mmHg 89%
04:00 +18°C° 0.1 mm 3 mps 751 mmHg 91%
05:00 +20°C° 0 mm 3 mps 751 mmHg 85%
06:00 +21°C° 0 mm 2 mps 751 mmHg 79%
07:00 +23°C° 0 mm 2 mps 751 mmHg 73%
08:00 +25°C° 0 mm 2 mps 751 mmHg 66%
09:00 +27°C° 0 mm 2 mps 751 mmHg 59%
10:00 +28°C° 0 mm 2 mps 751 mmHg 51%
11:00 +29°C° 0 mm 2 mps 751 mmHg 47%
12:00 +30°C° 0 mm 2 mps 751 mmHg 43%
13:00 +31°C° 0 mm 2 mps 750 mmHg 39%
14:00 +31°C° 0 mm 2 mps 750 mmHg 38%
15:00 +31°C° 0 mm 2 mps 750 mmHg 38%
16:00 +32°C° 0 mm 1 mps 750 mmHg 37%
17:00 +28°C° 0.1 mm 3 mps 750 mmHg 50%
18:00 +25°C° 0.1 mm 5 mps 750 mmHg 63%
19:00 +20°C° 0.1 mm 7 mps 750 mmHg 76%
20:00 +20°C° 0.1 mm 5 mps 751 mmHg 80%
21:00 +19°C° 0.1 mm 4 mps 751 mmHg 85%
22:00 +18°C° 0.1 mm 2 mps 751 mmHg 89%
23:00 +18°C° 0 mm 2 mps 752 mmHg 90%

29 July, Thursday

Time Temperature Precipitation Wind Pressure Humidity
00:00 +17°C° 0 mm 2 mps 752 mmHg 91%
01:00 +17°C° 0 mm 2 mps 752 mmHg 92%
02:00 +17°C° 0 mm 2 mps 752 mmHg 93%
03:00 +17°C° 0 mm 2 mps 752 mmHg 93%
04:00 +16°C° 0 mm 2 mps 752 mmHg 93%
05:00 +18°C° 0 mm 2 mps 752 mmHg 88%
06:00 +19°C° 0 mm 2 mps 752 mmHg 83%
07:00 +20°C° 0 mm 2 mps 752 mmHg 78%
08:00 +23°C° 0 mm 2 mps 752 mmHg 70%
09:00 +25°C° 0 mm 3 mps 752 mmHg 62%
10:00 +27°C° 0 mm 3 mps 752 mmHg 54%
11:00 +28°C° 0 mm 3 mps 752 mmHg 50%
12:00 +29°C° 0 mm 3 mps 751 mmHg 45%
13:00 +30°C° 0 mm 3 mps 751 mmHg 41%
14:00 +30°C° 0 mm 3 mps 751 mmHg 42%
15:00 +30°C° 0 mm 3 mps 751 mmHg 42%
16:00 +31°C° 0 mm 3 mps 751 mmHg 43%
17:00 +30°C° 0 mm 3 mps 750 mmHg 47%
18:00 +29°C° 0 mm 3 mps 750 mmHg 52%
19:00 +28°C° 0 mm 2 mps 750 mmHg 57%
20:00 +26°C° 0.8 mm 2 mps 750 mmHg 66%
21:00 +24°C° 0.8 mm 2 mps 750 mmHg 75%
22:00 +23°C° 0.8 mm 2 mps 750 mmHg 84%
23:00 +23°C° 0.4 mm 2 mps 750 mmHg 86%

30 July, Friday

Time Temperature Precipitation Wind Pressure Humidity
00:00 +21°C° 0.4 mm 2 mps 750 mmHg 89%
01:00 +21°C° 0.4 mm 2 mps 750 mmHg 92%
02:00 +21°C° 0.1 mm 2 mps 750 mmHg 93%
03:00 +20°C° 0.1 mm 2 mps 751 mmHg 94%
04:00 +20°C° 0.1 mm 2 mps 751 mmHg 94%
05:00 +21°C° 0 mm 2 mps 751 mmHg 89%
06:00 +23°C° 0 mm 1 mps 751 mmHg 84%
07:00 +23°C° 0 mm 1 mps 751 mmHg 78%
08:00 +24°C° 0 mm 1 mps 751 mmHg 72%
09:00 +25°C° 0 mm 1 mps 751 mmHg 67%
10:00 +27°C° 0 mm 1 mps 751 mmHg 61%
11:00 +27°C° 0.2 mm 2 mps 750 mmHg 58%
12:00 +28°C° 0.2 mm 3 mps 750 mmHg 55%
13:00 +28°C° 0.2 mm 4 mps 750 mmHg 53%
14:00 +28°C° 0 mm 4 mps 750 mmHg 52%
15:00 +28°C° 0 mm 4 mps 749 mmHg 50%
16:00 +28°C° 0 mm 4 mps 749 mmHg 49%
17:00 +27°C° 0 mm 3 mps 749 mmHg 53%
18:00 +26°C° 0 mm 3 mps 749 mmHg 57%
19:00 +25°C° 0 mm 3 mps 749 mmHg 60%
20:00 +24°C° 0 mm 3 mps 749 mmHg 61%
21:00 +22°C° 0 mm 3 mps 749 mmHg 62%
22:00 +21°C° 0 mm 3 mps 749 mmHg 63%
23:00 +21°C° 0 mm 3 mps 750 mmHg 60%
Show more